When you browse on this site, cookies collect data to enhance your experience and personalize the content and advertising you see.
Visit our Privacy Policy to learn more. By continuing to use the site, you agree to this use of cookies and data.
  • In Hungary
  • List of Countries
  • For 7 days
  • Water Temperature
  • Weather Map
  • News
  • Weather Widgets
  • user-avatar
    Login

    Hourly Weather Bonifacio

    Today, 19 November, Tuesday

    Time Temperature Precipitation Wind Pressure Humidity
    00:00 +12°C° 0.2 mm 8 mps 748 mmHg 80%
    01:00 +13°C° 0.2 mm 9 mps 748 mmHg 82%
    02:00 +12°C° 0.2 mm 9 mps 748 mmHg 83%
    03:00 +12°C° 0.2 mm 8 mps 748 mmHg 85%
    04:00 +12°C° 0.2 mm 8 mps 748 mmHg 87%
    05:00 +12°C° 0.1 mm 8 mps 749 mmHg 88%
    06:00 +11°C° 0.1 mm 7 mps 749 mmHg 88%
    07:00 +11°C° 0.1 mm 7 mps 750 mmHg 89%
    08:00 +11°C° 0.1 mm 6 mps 750 mmHg 86%
    09:00 +13°C° 0.1 mm 6 mps 751 mmHg 84%
    10:00 +13°C° 0.1 mm 6 mps 752 mmHg 82%
    11:00 +13°C° 0.1 mm 6 mps 752 mmHg 80%
    12:00 +13°C° 0.1 mm 6 mps 752 mmHg 78%
    13:00 +14°C° 0.1 mm 6 mps 752 mmHg 76%
    14:00 +13°C° 0.1 mm 6 mps 752 mmHg 78%
    15:00 +12°C° 0.1 mm 7 mps 752 mmHg 80%
    16:00 +11°C° 0.1 mm 7 mps 752 mmHg 81%
    17:00 +11°C° 0 mm 7 mps 753 mmHg 82%
    18:00 +10°C° 0 mm 6 mps 753 mmHg 83%
    19:00 +10°C° 0 mm 6 mps 753 mmHg 83%
    20:00 +10°C° 0 mm 6 mps 754 mmHg 82%
    21:00 +10°C° 0 mm 7 mps 754 mmHg 82%
    22:00 +10°C° 0 mm 7 mps 754 mmHg 81%
    23:00 +10°C° 0 mm 7 mps 754 mmHg 81%

    Tomorrow, 20 November, Wednesday

    Time Temperature Precipitation Wind Pressure Humidity
    00:00 +10°C° 0 mm 7 mps 754 mmHg 82%
    01:00 +10°C° 0 mm 7 mps 754 mmHg 83%
    02:00 +10°C° 0 mm 7 mps 754 mmHg 82%
    03:00 +10°C° 0 mm 7 mps 754 mmHg 81%
    04:00 +10°C° 0 mm 7 mps 754 mmHg 80%
    05:00 +10°C° 0 mm 7 mps 754 mmHg 80%
    06:00 +10°C° 0 mm 7 mps 754 mmHg 80%
    07:00 +9°C° 0 mm 7 mps 754 mmHg 80%
    08:00 +10°C° 0 mm 6 mps 754 mmHg 76%
    09:00 +11°C° 0 mm 6 mps 755 mmHg 72%
    10:00 +13°C° 0 mm 5 mps 755 mmHg 68%
    11:00 +13°C° 0 mm 5 mps 755 mmHg 64%
    12:00 +14°C° 0 mm 4 mps 754 mmHg 60%
    13:00 +15°C° 0 mm 4 mps 754 mmHg 56%
    14:00 +14°C° 0 mm 3 mps 754 mmHg 59%
    15:00 +14°C° 0 mm 3 mps 754 mmHg 62%
    16:00 +14°C° 0 mm 3 mps 754 mmHg 65%
    17:00 +13°C° 0.1 mm 3 mps 754 mmHg 69%
    18:00 +12°C° 0.1 mm 3 mps 754 mmHg 73%
    19:00 +11°C° 0.1 mm 3 mps 754 mmHg 77%
    20:00 +11°C° 0.3 mm 3 mps 754 mmHg 79%
    21:00 +12°C° 0.3 mm 3 mps 754 mmHg 80%
    22:00 +12°C° 0.3 mm 4 mps 755 mmHg 82%
    23:00 +12°C° 0.3 mm 4 mps 754 mmHg 83%

    Day after tomorrow, 21 November, Thursday

    Time Temperature Precipitation Wind Pressure Humidity
    00:00 +11°C° 0.3 mm 4 mps 754 mmHg 84%
    01:00 +11°C° 0.3 mm 4 mps 754 mmHg 84%
    02:00 +11°C° 0.4 mm 4 mps 754 mmHg 84%
    03:00 +11°C° 0.4 mm 4 mps 754 mmHg 83%
    04:00 +11°C° 0.4 mm 4 mps 754 mmHg 83%
    05:00 +11°C° 0.2 mm 3 mps 753 mmHg 81%
    06:00 +12°C° 0.2 mm 2 mps 753 mmHg 80%
    07:00 +12°C° 0.2 mm 2 mps 753 mmHg 78%
    08:00 +13°C° 0 mm 2 mps 753 mmHg 74%
    09:00 +14°C° 0 mm 1 mps 753 mmHg 71%
    10:00 +15°C° 0 mm 1 mps 753 mmHg 67%
    11:00 +15°C° 0 mm 1 mps 753 mmHg 63%
    12:00 +16°C° 0 mm 1 mps 753 mmHg 59%
    13:00 +18°C° 0 mm 1 mps 753 mmHg 55%
    14:00 +16°C° 0 mm 2 mps 753 mmHg 56%
    15:00 +16°C° 0 mm 2 mps 753 mmHg 58%
    16:00 +16°C° 0 mm 2 mps 752 mmHg 59%
    17:00 +15°C° 0 mm 2 mps 753 mmHg 63%
    18:00 +13°C° 0 mm 3 mps 753 mmHg 66%
    19:00 +11°C° 0 mm 3 mps 753 mmHg 70%
    20:00 +12°C° 0 mm 3 mps 753 mmHg 70%
    21:00 +12°C° 0 mm 3 mps 753 mmHg 69%
    22:00 +12°C° 0 mm 3 mps 754 mmHg 69%
    23:00 +12°C° 0 mm 3 mps 753 mmHg 70%

    22 November, Friday

    Time Temperature Precipitation Wind Pressure Humidity
    00:00 +12°C° 0 mm 3 mps 753 mmHg 70%
    01:00 +12°C° 0 mm 3 mps 753 mmHg 71%
    02:00 +12°C° 0.1 mm 3 mps 753 mmHg 72%
    03:00 +12°C° 0.1 mm 3 mps 753 mmHg 73%
    04:00 +12°C° 0.1 mm 3 mps 753 mmHg 74%
    05:00 +12°C° 0 mm 3 mps 753 mmHg 77%
    06:00 +12°C° 0 mm 3 mps 753 mmHg 79%
    07:00 +12°C° 0 mm 3 mps 753 mmHg 81%
    08:00 +12°C° 0.1 mm 3 mps 753 mmHg 80%
    09:00 +13°C° 0.1 mm 4 mps 753 mmHg 80%
    10:00 +14°C° 0.1 mm 4 mps 753 mmHg 79%
    11:00 +14°C° 0.1 mm 4 mps 753 mmHg 76%
    12:00 +15°C° 0.1 mm 4 mps 753 mmHg 73%
    13:00 +17°C° 0.1 mm 4 mps 753 mmHg 70%
    14:00 +15°C° 0.2 mm 4 mps 753 mmHg 72%
    15:00 +15°C° 0.2 mm 4 mps 752 mmHg 74%
    16:00 +15°C° 0.2 mm 4 mps 752 mmHg 75%
    17:00 +14°C° 0.1 mm 3 mps 752 mmHg 77%
    18:00 +13°C° 0.1 mm 3 mps 752 mmHg 79%
    19:00 +13°C° 0.1 mm 2 mps 752 mmHg 81%
    20:00 +12°C° 0 mm 3 mps 752 mmHg 82%
    21:00 +12°C° 0 mm 3 mps 752 mmHg 83%
    22:00 +12°C° 0 mm 3 mps 752 mmHg 84%
    23:00 +12°C° 0 mm 3 mps 752 mmHg 82%

    23 November, Saturday

    Time Temperature Precipitation Wind Pressure Humidity
    00:00 +13°C° 0 mm 3 mps 751 mmHg 80%
    01:00 +13°C° 0 mm 3 mps 751 mmHg 78%
    02:00 +13°C° 0 mm 4 mps 750 mmHg 76%
    03:00 +13°C° 0 mm 4 mps 750 mmHg 74%
    04:00 +13°C° 0 mm 4 mps 749 mmHg 72%
    05:00 +14°C° 0 mm 4 mps 749 mmHg 70%
    06:00 +14°C° 0 mm 5 mps 749 mmHg 68%
    07:00 +14°C° 0 mm 5 mps 748 mmHg 66%
    08:00 +14°C° 1.2 mm 5 mps 748 mmHg 72%
    09:00 +13°C° 1.2 mm 5 mps 748 mmHg 78%
    10:00 +13°C° 1.2 mm 4 mps 748 mmHg 84%
    11:00 +13°C° 1.4 mm 4 mps 748 mmHg 85%
    12:00 +14°C° 1.4 mm 3 mps 747 mmHg 86%
    13:00 +14°C° 1.4 mm 3 mps 747 mmHg 86%
    14:00 +14°C° 1.9 mm 3 mps 746 mmHg 89%
    15:00 +13°C° 1.9 mm 3 mps 746 mmHg 91%
    16:00 +13°C° 1.9 mm 3 mps 745 mmHg 94%
    17:00 +13°C° 1.3 mm 4 mps 745 mmHg 93%
    18:00 +13°C° 1.3 mm 4 mps 745 mmHg 93%
    19:00 +13°C° 1.3 mm 5 mps 745 mmHg 93%
    20:00 +13°C° 4.8 mm 5 mps 744 mmHg 94%
    21:00 +12°C° 4.8 mm 5 mps 744 mmHg 95%
    22:00 +12°C° 4.8 mm 5 mps 744 mmHg 95%
    23:00 +12°C° 1.8 mm 4 mps 744 mmHg 94%

    24 November, Sunday

    Time Temperature Precipitation Wind Pressure Humidity
    00:00 +12°C° 1.8 mm 3 mps 743 mmHg 93%
    01:00 +12°C° 1.8 mm 3 mps 743 mmHg 92%
    02:00 +12°C° 0.4 mm 3 mps 743 mmHg 91%
    03:00 +12°C° 0.4 mm 4 mps 743 mmHg 91%
    04:00 +12°C° 0.4 mm 5 mps 743 mmHg 90%
    05:00 +12°C° 0.8 mm 5 mps 744 mmHg 90%
    06:00 +13°C° 0.8 mm 6 mps 745 mmHg 90%
    07:00 +13°C° 0.8 mm 6 mps 746 mmHg 90%
    08:00 +14°C° 0.6 mm 7 mps 747 mmHg 89%
    09:00 +13°C° 0.6 mm 8 mps 748 mmHg 89%
    10:00 +15°C° 0.6 mm 9 mps 749 mmHg 88%
    11:00 +15°C° 0.2 mm 9 mps 749 mmHg 87%
    12:00 +15°C° 0.2 mm 9 mps 750 mmHg 85%
    13:00 +15°C° 0.2 mm 8 mps 750 mmHg 84%
    14:00 +15°C° 0.1 mm 7 mps 751 mmHg 82%
    15:00 +16°C° 0.1 mm 6 mps 751 mmHg 81%
    16:00 +16°C° 0.1 mm 5 mps 752 mmHg 79%
    17:00 +15°C° 0 mm 4 mps 752 mmHg 79%
    18:00 +14°C° 0 mm 4 mps 753 mmHg 78%
    19:00 +13°C° 0 mm 3 mps 753 mmHg 77%
    20:00 +13°C° 0 mm 3 mps 754 mmHg 76%
    21:00 +13°C° 0 mm 3 mps 755 mmHg 75%
    22:00 +14°C° 0 mm 2 mps 755 mmHg 73%
    23:00 +14°C° 0 mm 2 mps 755 mmHg 75%
    Show more